Location: Oshawa
(43.9000°N, 78.8670°W)
Time: 21:11:38
(UTC-05:00)

Daily predictions for brighter satellites

Satellite Brightness Start Highest point End
(mag) Time Altitude Azimuth Time Altitude Azimuth Time Altitude Azimuth
Cosmos 1818 3.7 18:20:11 10° SSW 18:25:31 59° ESE 18:30:53 10° NE
Cosmos 2360 Rocket 2.5 18:21:19 10° NNW 18:26:45 45° ENE 18:32:10 10° SE
Cosmos 407 Rocket 3.5 18:21:56 10° S 18:27:08 69° ESE 18:32:26 10° NNE
Cosmos 2219 Rocket 3.8 18:24:33 10° N 18:27:51 16° NE 18:31:09 10° E
DNEPR-1 R/B 4.0 18:26:40 10° NW 18:30:54 63° WSW 18:35:05 10° SSE
Cosmos 676 Rocket 4.2 18:26:42 10° S 18:31:42 52° ESE 18:36:47 10° NNE
Nadezhda 1 Rocket 4.2 18:31:28 10° N 18:37:34 78° W 18:43:37 10° S
Meteor 1-11 Rocket 4.3 18:34:14 10° SSE 18:39:31 37° E 18:44:54 10° NNE
Cosmos 1461 3.9 18:39:41 10° NW 18:43:34 48° WSW 18:47:31 10° SSE
DELTA 2 R/B (1) 4.4 18:39:29 10° W 18:44:51 46° SSW 18:50:11 10° ESE
Cosmos 1140 Rocket 3.8 18:42:00 10° S 18:46:49 43° ESE 18:51:41 10° NNE
Cosmos 1602 4.0 18:46:16 10° SSE 18:49:57 45° E 18:53:42 10° NNE
Resurs 01 Rocket 2.2 18:46:19 10° SE 18:50:17 34° ENE 18:54:17 10° N
Cosmos 1300 Rocket 3.8 18:47:16 10° SSE 18:51:29 46° E 18:55:45 10° NNE
Cosmos 2292 Rocket 4.4 18:49:16 10° S 18:54:31 82° E 19:01:38 10° N
Cosmos 614 Rocket 4.4 18:50:04 10° S 18:54:43 38° ESE 18:59:22 10° NE
COSMO-SKYMED 1 3.6 18:50:40 10° N 18:54:53 50° WNW 18:59:04 10° SSW
Abrixas rocket 4.3 18:54:33 10° SSE 18:56:15 13° SE 18:56:52 13° SE
Cosmos 1833 4.2 18:51:03 10° SSW 18:56:41 66° ESE 19:02:18 10° NNE
Cosmos 2181 Rocket 4.0 18:51:20 10° N 18:57:34 68° E 19:03:52 10° SSE
ALOS 2.4 18:53:41 10° SSE 18:58:13 54° ENE 19:02:47 10° N
USA 229 DEB 4.2 18:54:41 10° NNW 19:01:26 43° NE 19:07:02 15° ESE
USA 229 4.2 18:54:47 10° NNW 19:01:32 43° NE 19:07:06 15° ESE
Cosmos 2333 Rocket 3.5 18:57:17 10° N 19:01:43 22° NE 19:04:11 17° E
Spot 2 Rocket 3.7 18:57:50 10° SE 19:02:39 47° ENE 19:07:30 10° N
SL-16 R/B 3.7 18:58:09 10° NW 19:03:24 39° WSW 19:08:36 10° S
Cosmos 2208 Rocket 4.4 18:58:41 10° N 19:03:56 45° ENE 19:09:06 10° SE
FREGAT/IRIS 2.8 19:02:47 10° S 19:05:51 74° W 19:08:58 10° NNW
Cosmos 1340 2.8 19:02:17 10° NNW 19:06:05 79° W 19:09:52 10° S
Helios 1A 3.9 19:04:16 18° ESE 19:06:23 26° ENE 19:09:52 10° N
Resurs 1-3 3.9 19:03:59 10° SE 19:08:08 43° ENE 19:12:17 10° N
Cosmos 1709 Rocket 4.1 19:07:41 10° S 19:13:55 83° W 19:20:07 10° N
Cosmos 1850 Rocket 4.2 19:08:52 10° S 19:13:56 48° ESE 19:19:04 10° NNE
Cosmos 2074 Rocket 4.3 19:08:12 10° SSE 19:14:04 44° E 19:19:59 10° NNE
Cosmos 2184 Rocket 4.2 19:11:05 10° SSE 19:17:01 45° E 19:22:56 10° NNE
Helios 1B rocket 3.5 19:14:04 10° NE 19:18:13 25° ESE 19:21:05 10° SSE
Envisat 4.1 19:18:30 23° ENE 19:19:11 23° ENE 19:23:09 10° NNE
Cosmos 2322 Rocket 4.3 19:14:58 10° NW 19:19:40 28° WSW 19:24:22 10° SSW
FengYun 1-2 T 4.1 19:14:50 10° SSE 19:20:19 84° ENE 19:25:51 10° NNW
Okean 2 4.1 19:17:45 10° NNE 19:21:29 31° ENE 19:22:00 30° E
Cosmos 1954 Rocket 4.2 19:16:20 10° SSW 19:21:31 72° WNW 19:26:46 10° NNE
USA 186 3.9 19:24:36 14° NNE 19:24:36 14° NNE 19:25:08 10° NNE
HJ-1C 3.4 19:19:37 10° S 19:23:00 79° W 19:26:24 10° NNW
Tiangong 2 3.9 19:22:50 10° WSW 19:24:11 12° SSW 19:25:33 10° S
SJ-6B 3.8 19:20:30 10° S 19:24:23 50° W 19:28:14 10° NNW
Genesis I 3.1 19:22:11 10° NNW 19:26:08 76° NE 19:28:05 28° SE
Okean 1 Rocket 3.0 19:21:47 10° S 19:26:16 84° E 19:30:46 10° N
SAR-Lupe-1 4.4 19:26:19 39° E 19:26:45 41° ENE 19:30:08 10° N
Meteor 1-5 Rocket 4.5 19:21:27 10° SSE 19:27:09 49° E 19:32:49 10° NNE
Meteor 1-19 Rocket 4.4 19:22:14 10° NNW 19:27:54 76° W 19:33:39 10° S
FENGYUN 3A 3.7 19:22:45 10° SSE 19:28:10 83° WSW 19:33:38 10° NNW
Cosmos 1892 Rocket 4.4 19:25:47 10° NNE 19:29:15 30° ENE 19:29:15 30° ENE
SAR-Lupe-4 3.6 19:30:26 37° SE 19:31:34 55° ENE 19:35:05 10° N
NOSS 8 (F) 4.4 19:28:33 10° SW 19:32:03 88° NW 19:33:49 28° NE
Gbstr 26 Del rocket 2.5 19:32:17 10° SW 19:36:03 74° SE 19:36:53 51° ENE
Cosmos 2322 4.2 19:30:38 10° NNW 19:36:17 61° WSW 19:41:52 10° S
Cosmos 1238 Rocket 4.0 19:34:24 10° NNW 19:37:08 32° W 19:39:49 10° SSW
Cosmos 2285 Rocket 4.0 19:37:16 10° NNW 19:43:42 65° ENE 19:47:50 23° SE
GEOS 3 Rocket 3.5 19:39:42 14° NE 19:44:16 85° SE 19:49:34 10° SW
Cosmos 1025 Rocket 2.9 19:40:24 10° N 19:44:48 84° E 19:48:41 13° S
CZ-2D R/B 3.1 19:43:32 26° SSE 19:45:37 88° ENE 19:49:27 10° NNW
Cosmos 2154 Rocket 4.4 19:40:11 10° SSE 19:46:01 40° E 19:51:52 10° NNE
Cosmos 405 Rocket 3.6 19:42:06 10° N 19:45:00 36° NE 19:45:00 36° NE
GPS 2-04 Rocket1 4.5 19:43:14 10° SW 19:46:29 22° SSE 19:46:29 22° SSE
H-2A R/B 3.2 19:47:16 10° S 19:50:55 57° W 19:54:38 10° NNW
Okean 1-7 Rocket 4.0 19:46:29 10° NNW 19:51:00 63° W 19:55:24 10° S
Meteor 1-23 Rocket 4.3 19:45:49 10° NNW 19:51:40 82° W 19:57:24 10° S
COSMOS 2428 2.7 19:45:58 10° NNW 19:51:42 85° WSW 19:55:37 21° SSE
Meteor 2-13 Rocket 4.4 19:45:58 10° SSE 19:51:51 55° E 19:57:47 10° NNE
Cosmos 2237 4.5 19:46:14 10° NNW 19:51:56 68° WSW 19:57:28 11° SSE
Cosmos 1536 3.3 19:48:00 10° SSW 19:51:56 59° W 19:55:53 10° N
Cosmos 2333 4.1 19:47:19 10° NNW 19:53:05 87° ENE 19:56:21 27° SSE
Meteor 2-4 Rocket 4.1 19:48:29 10° NNW 19:53:59 63° W 19:59:18 10° S
Cosmos 2237 Rocket 2.7 19:50:28 10° NNW 19:55:47 38° NE 19:55:53 38° ENE
Cosmos 1741 Rocket 4.4 19:59:52 10° SSW 20:05:02 64° WNW 20:10:15 10° NNE
NOSS 0 Rocket 3.9 20:01:15 10° NNW 20:07:22 64° ENE 20:08:25 55° ESE
Cosmos 2360 Rocket 4.1 20:05:45 10° NW 20:10:30 28° WSW 20:15:14 10° SSW
Cosmos 2219 Rocket 2.0 20:07:06 10° NNW 20:12:44 81° ENE 20:13:35 64° SE
Cosmos 2219 3.4 20:07:47 10° SSW 20:13:31 72° WNW 20:19:17 10° NNE
Cosmos 1763 Rocket 4.5 20:11:12 10° N 20:14:26 32° NNE 20:14:26 32° NNE
Resurs 01 Rocket 3.9 20:23:16 10° SSW 20:26:49 24° W 20:30:24 10° NW
SL-16 R/B 3.6 20:24:08 10° N 20:27:19 26° NNE 20:27:19 26° NNE
BREEZE-M DEB (TANK) 4.3 20:29:44 10° WNW 20:33:34 63° SSW 20:35:01 51° SSE
Cosmos 468 Rocket 4.3 20:34:37 10° NNW 20:39:27 65° W 20:39:27 65° W
Cosmos 2333 Rocket 2.4 20:40:48 10° NNW 20:46:14 68° W 20:46:14 68° W
USA 229 DEB 4.4 20:45:43 10° NW 20:52:33 50° WSW 20:54:32 40° SSW
USA 229 4.4 20:45:48 10° NW 20:52:39 51° WSW 20:54:36 41° SSW
Cosmos 1980 4.2 20:48:39 10° NNW 20:53:09 56° NW 20:53:09 56° NW
Envisat 4.0 20:58:41 43° WNW 20:58:41 43° WNW 21:02:49 10° NNW
USA 215 4.5 20:59:49 28° NNE 21:00:30 29° N 21:05:56 10° NW
NOSS 3-1 (A) 4.0 20:57:57 10° NW 21:04:58 74° N 21:04:58 74° N
ATLAS 2AS CENTAUR R/B 4.0 21:03:51 10° NNW 21:10:18 35° NNE 21:10:18 35° NNE
NOSS 3-1 (C) 4.2 21:17:30 10° NW 21:24:22 67° W 21:24:22 67° W
Cosmos 2237 Rocket 4.0 21:34:40 10° NW 21:37:44 27° WNW 21:37:44 27° WNW
